When you browse on this site, cookies collect data to enhance your experience and personalize the content and advertising you see.
Visit our Privacy Policy to learn more. By continuing to use the site, you agree to this use of cookies and data.
  • In Romania
  • List of Countries
  • For 7 days
  • Water Temperature
  • Satellite Maps
  • Weather Map
  • Weather Widgets
  • user-avatar
    Login

    Hourly Weather Passo Fundo

    Today, 19 February, Tuesday

    Time Temperature Precipitation Wind Pressure Humidity
    00:00 +19°C° 0.1 mm 2 mps 703 mmHg 92%
    01:00 +19°C° 0 mm 2 mps 703 mmHg 92%
    02:00 +18°C° 0 mm 2 mps 703 mmHg 92%
    03:00 +18°C° 0 mm 2 mps 702 mmHg 93%
    04:00 +18°C° 0 mm 2 mps 702 mmHg 94%
    05:00 +18°C° 0 mm 2 mps 702 mmHg 94%
    06:00 +17°C° 0 mm 2 mps 702 mmHg 95%
    07:00 +19°C° 0 mm 2 mps 703 mmHg 92%
    08:00 +21°C° 0 mm 3 mps 703 mmHg 90%
    09:00 +22°C° 0 mm 4 mps 703 mmHg 87%
    10:00 +24°C° 0.2 mm 3 mps 703 mmHg 84%
    11:00 +25°C° 0.2 mm 3 mps 703 mmHg 81%
    12:00 +27°C° 0.2 mm 3 mps 703 mmHg 77%
    13:00 +27°C° 1.8 mm 3 mps 703 mmHg 79%
    14:00 +27°C° 1.8 mm 2 mps 702 mmHg 81%
    15:00 +26°C° 1.8 mm 2 mps 702 mmHg 83%
    16:00 +26°C° 1.6 mm 2 mps 702 mmHg 85%
    17:00 +26°C° 1.6 mm 1 mps 701 mmHg 88%
    18:00 +25°C° 1.6 mm 1 mps 701 mmHg 90%
    19:00 +24°C° 0.7 mm 1 mps 702 mmHg 91%
    20:00 +23°C° 0.7 mm 1 mps 702 mmHg 91%
    21:00 +22°C° 0.7 mm 1 mps 702 mmHg 92%
    22:00 +22°C° 0 mm 1 mps 702 mmHg 92%
    23:00 +21°C° 0 mm 1 mps 703 mmHg 93%

    Tomorrow, 20 February, Wednesday

    Time Temperature Precipitation Wind Pressure Humidity
    00:00 +21°C° 0 mm 1 mps 703 mmHg 93%
    01:00 +19°C° 0 mm 0 mps 703 mmHg 93%
    02:00 +19°C° 0 mm 0 mps 703 mmHg 93%
    03:00 +18°C° 0 mm 0 mps 703 mmHg 94%
    04:00 +18°C° 0 mm 0 mps 703 mmHg 94%
    05:00 +18°C° 0 mm 0 mps 703 mmHg 94%
    06:00 +20°C° 0 mm 1 mps 703 mmHg 95%
    07:00 +21°C° 0 mm 1 mps 703 mmHg 92%
    08:00 +23°C° 0 mm 1 mps 704 mmHg 90%
    09:00 +24°C° 0 mm 1 mps 704 mmHg 88%
    10:00 +26°C° 0 mm 1 mps 704 mmHg 82%
    11:00 +27°C° 0 mm 1 mps 704 mmHg 76%
    12:00 +29°C° 0 mm 1 mps 704 mmHg 70%
    13:00 +29°C° 0.5 mm 1 mps 704 mmHg 69%
    14:00 +30°C° 0.5 mm 1 mps 703 mmHg 69%
    15:00 +30°C° 0.5 mm 1 mps 703 mmHg 68%
    16:00 +29°C° 2.2 mm 1 mps 703 mmHg 73%
    17:00 +28°C° 2.2 mm 2 mps 703 mmHg 78%
    18:00 +27°C° 2.2 mm 2 mps 703 mmHg 83%
    19:00 +26°C° 0.2 mm 1 mps 703 mmHg 82%
    20:00 +24°C° 0.2 mm 1 mps 703 mmHg 81%
    21:00 +23°C° 0.2 mm 1 mps 704 mmHg 81%
    22:00 +22°C° 0 mm 1 mps 704 mmHg 84%
    23:00 +20°C° 0 mm 2 mps 704 mmHg 87%

    Day after tomorrow, 21 February, Thursday

    Time Temperature Precipitation Wind Pressure Humidity
    00:00 +20°C° 0 mm 3 mps 704 mmHg 91%
    01:00 +19°C° 0 mm 3 mps 704 mmHg 93%
    02:00 +19°C° 0 mm 3 mps 704 mmHg 94%
    03:00 +18°C° 0 mm 3 mps 704 mmHg 96%
    04:00 +18°C° 0 mm 3 mps 704 mmHg 96%
    05:00 +18°C° 0 mm 3 mps 704 mmHg 96%
    06:00 +18°C° 0 mm 3 mps 704 mmHg 97%
    07:00 +19°C° 0 mm 3 mps 705 mmHg 93%
    08:00 +21°C° 0 mm 3 mps 705 mmHg 90%
    09:00 +23°C° 0 mm 4 mps 706 mmHg 87%
    10:00 +25°C° 0 mm 3 mps 706 mmHg 81%
    11:00 +27°C° 0 mm 3 mps 706 mmHg 75%
    12:00 +29°C° 0 mm 3 mps 706 mmHg 69%
    13:00 +29°C° 0 mm 2 mps 706 mmHg 66%
    14:00 +30°C° 0 mm 2 mps 705 mmHg 64%
    15:00 +31°C° 0 mm 2 mps 705 mmHg 62%
    16:00 +30°C° 0 mm 2 mps 704 mmHg 66%
    17:00 +30°C° 0 mm 2 mps 704 mmHg 70%
    18:00 +29°C° 0 mm 1 mps 704 mmHg 75%
    19:00 +27°C° 0 mm 1 mps 704 mmHg 77%
    20:00 +26°C° 0 mm 1 mps 704 mmHg 80%
    21:00 +24°C° 0 mm 1 mps 705 mmHg 82%
    22:00 +23°C° 0 mm 2 mps 705 mmHg 84%
    23:00 +21°C° 0 mm 3 mps 705 mmHg 86%

    22 February, Friday

    Time Temperature Precipitation Wind Pressure Humidity
    00:00 +21°C° 0 mm 3 mps 705 mmHg 87%
    01:00 +20°C° 0 mm 4 mps 705 mmHg 90%
    02:00 +20°C° 0 mm 4 mps 704 mmHg 92%
    03:00 +20°C° 0 mm 4 mps 704 mmHg 94%
    04:00 +20°C° 0 mm 4 mps 704 mmHg 95%
    05:00 +19°C° 0 mm 3 mps 704 mmHg 95%
    06:00 +19°C° 0 mm 3 mps 704 mmHg 96%
    07:00 +21°C° 0 mm 3 mps 705 mmHg 92%
    08:00 +22°C° 0 mm 4 mps 705 mmHg 88%
    09:00 +25°C° 0 mm 4 mps 706 mmHg 84%
    10:00 +26°C° 0 mm 3 mps 706 mmHg 79%
    11:00 +28°C° 0 mm 3 mps 706 mmHg 75%
    12:00 +30°C° 0 mm 3 mps 706 mmHg 71%
    13:00 +30°C° 0 mm 3 mps 705 mmHg 68%
    14:00 +31°C° 0 mm 2 mps 705 mmHg 66%
    15:00 +31°C° 0 mm 2 mps 704 mmHg 64%
    16:00 +31°C° 0 mm 2 mps 704 mmHg 67%
    17:00 +30°C° 0 mm 1 mps 703 mmHg 71%
    18:00 +30°C° 0 mm 1 mps 703 mmHg 74%
    19:00 +28°C° 0 mm 1 mps 703 mmHg 78%
    20:00 +26°C° 0 mm 1 mps 704 mmHg 82%
    21:00 +22°C° 0 mm 0 mps 704 mmHg 85%
    22:00 +21°C° 0 mm 0 mps 704 mmHg 86%
    23:00 +21°C° 0 mm 0 mps 704 mmHg 87%

    23 February, Saturday

    Time Temperature Precipitation Wind Pressure Humidity
    00:00 +21°C° 0 mm 0 mps 704 mmHg 88%
    01:00 +22°C° 0 mm 1 mps 703 mmHg 90%
    02:00 +22°C° 0 mm 1 mps 703 mmHg 91%
    03:00 +20°C° 0 mm 2 mps 703 mmHg 93%
    04:00 +20°C° 0 mm 2 mps 703 mmHg 94%
    05:00 +20°C° 0 mm 2 mps 702 mmHg 94%
    06:00 +19°C° 0 mm 2 mps 702 mmHg 95%
    07:00 +21°C° 0 mm 2 mps 703 mmHg 90%
    08:00 +24°C° 0 mm 3 mps 703 mmHg 86%
    09:00 +26°C° 0 mm 3 mps 704 mmHg 81%
    10:00 +28°C° 0 mm 4 mps 704 mmHg 77%
    11:00 +29°C° 0 mm 4 mps 703 mmHg 74%
    12:00 +32°C° 0 mm 4 mps 703 mmHg 70%
    13:00 +32°C° 0.3 mm 4 mps 702 mmHg 68%
    14:00 +32°C° 0.3 mm 4 mps 702 mmHg 67%
    15:00 +33°C° 0.3 mm 3 mps 701 mmHg 66%
    16:00 +31°C° 0.2 mm 3 mps 701 mmHg 70%
    17:00 +30°C° 0.2 mm 2 mps 700 mmHg 74%
    18:00 +29°C° 0.2 mm 1 mps 700 mmHg 79%
    19:00 +27°C° 0 mm 1 mps 700 mmHg 79%
    20:00 +26°C° 0 mm 2 mps 700 mmHg 79%
    21:00 +24°C° 0 mm 2 mps 700 mmHg 79%
    22:00 +24°C° 0 mm 2 mps 700 mmHg 79%
    23:00 +24°C° 0 mm 3 mps 700 mmHg 79%

    24 February, Sunday

    Time Temperature Precipitation Wind Pressure Humidity
    00:00 +22°C° 0 mm 3 mps 700 mmHg 80%
    01:00 +23°C° 0 mm 4 mps 700 mmHg 81%
    02:00 +23°C° 0 mm 4 mps 700 mmHg 82%
    03:00 +23°C° 0 mm 4 mps 699 mmHg 83%
    04:00 +23°C° 0 mm 5 mps 699 mmHg 81%
    05:00 +23°C° 0 mm 5 mps 699 mmHg 80%
    06:00 +23°C° 0 mm 5 mps 699 mmHg 78%
    07:00 +24°C° 0 mm 6 mps 700 mmHg 79%
    08:00 +24°C° 0 mm 6 mps 700 mmHg 81%
    09:00 +26°C° 0 mm 7 mps 700 mmHg 82%
    10:00 +27°C° 0.8 mm 6 mps 700 mmHg 84%
    11:00 +27°C° 0.8 mm 6 mps 700 mmHg 85%
    12:00 +28°C° 0.8 mm 5 mps 700 mmHg 87%
    13:00 +28°C° 1.7 mm 4 mps 700 mmHg 87%
    14:00 +27°C° 1.7 mm 4 mps 700 mmHg 88%
    15:00 +27°C° 1.7 mm 3 mps 700 mmHg 88%
    16:00 +27°C° 0.5 mm 2 mps 699 mmHg 88%
    17:00 +27°C° 0.5 mm 2 mps 699 mmHg 88%
    18:00 +26°C° 0.5 mm 1 mps 699 mmHg 88%
    19:00 +25°C° 1 mm 1 mps 699 mmHg 90%
    20:00 +24°C° 1 mm 2 mps 699 mmHg 92%
    21:00 +23°C° 1 mm 2 mps 699 mmHg 93%
    22:00 +23°C° 2.6 mm 2 mps 699 mmHg 95%
    23:00 +21°C° 2.6 mm 2 mps 699 mmHg 96%
    Show more